| time (UTC) | temp C | wind direction | speed KPH | gust KPH | rain 1hr cm | rain 24hr cm | rain mn cm | humidity % | barometer mb |
| 20260509234037 | 6 | 180 | 4.8 | 14.5 | 0.00 | 0.00 | 0.00 | 81 | 1010.4 |
| 20260509233017 | 6 | 158 | 6.4 | 16.1 | 0.00 | 0.00 | 0.00 | 81 | 1010.5 |
| 20260509232017 | 6 | 180 | 4.8 | 17.7 | 0.00 | 0.00 | 0.00 | 81 | 1010.7 |
| 20260509231037 | 6 | 158 | 6.4 | 16.1 | 0.00 | 0.00 | 0.00 | 81 | 1010.8 |
| 20260509230017 | 6 | 158 | 3.2 | 9.7 | 0.00 | 0.00 | 0.00 | 83 | 1010.8 |
| 20260509225017 | 6 | 158 | 3.2 | 12.9 | 0.00 | 0.00 | 0.00 | 83 | 1010.9 |
| 20260509224017 | 6 | 135 | 4.8 | 11.3 | 0.00 | 0.00 | 0.00 | 83 | 1011.1 |
| 20260509223017 | 6 | 135 | 3.2 | 9.7 | 0.00 | 0.00 | 0.00 | 83 | 1011.2 |
| 20260509222017 | 6 | 203 | 4.8 | 19.3 | 0.00 | 0.00 | 0.00 | 83 | 1011.3 |
| 20260509221017 | 6 | 225 | 6.4 | 16.1 | 0.00 | 0.00 | 0.00 | 83 | 1011.3 |
| 20260509220017 | 6 | 158 | 3.2 | 12.9 | 0.00 | 0.00 | 0.00 | 84 | 1011.3 |
| 20260509215057 | 6 | 135 | 3.2 | 9.7 | 0.00 | 0.00 | 0.00 | 84 | 1011.5 |
| 20260509214037 | 6 | 225 | 3.2 | 8.0 | 0.00 | 0.00 | 0.00 | 84 | 1011.6 |
| 20260509213017 | 6 | 90 | 1.6 | 6.4 | 0.00 | 0.00 | 0.00 | 84 | 1011.5 |
| 20260509212017 | 6 | 135 | 3.2 | 9.7 | 0.00 | 0.00 | 0.00 | 83 | 1011.6 |
| 20260509211017 | 6 | 158 | 3.2 | 8.0 | 0.00 | 0.00 | 0.00 | 84 | 1011.6 |
| 20260509210017 | 6 | 135 | 3.2 | 8.0 | 0.00 | 0.00 | 0.00 | 84 | 1011.8 |
| 20260509205017 | 6 | 158 | 3.2 | 8.0 | 0.00 | 0.00 | 0.00 | 84 | 1012.0 |
| 20260509204017 | 6 | 135 | 3.2 | 8.0 | 0.00 | 0.00 | 0.00 | 84 | 1011.9 |
| 20260509203017 | 5 | 225 | 1.6 | 4.8 | 0.00 | 0.00 | 0.00 | 85 | 1012.0 |
| 20260509202037 | 5 | 225 | 1.6 | 6.4 | 0.00 | 0.00 | 0.00 | 85 | 1012.1 |
| 20260509201037 | 6 | 158 | 3.2 | 9.7 | 0.00 | 0.00 | 0.00 | 84 | 1012.1 |
| 20260509200017 | 6 | 225 | 1.6 | 9.7 | 0.00 | 0.00 | 0.00 | 84 | 1012.1 |
| 20260509195017 | 6 | 158 | 4.8 | 11.3 | 0.00 | 0.00 | 0.00 | 84 | 1012.1 |
| 20260509194037 | 6 | 135 | 4.8 | 11.3 | 0.00 | 0.00 | 0.00 | 84 | 1012.2 |
| 20260509193017 | 6 | 158 | 1.6 | 6.4 | 0.00 | 0.00 | 0.00 | 83 | 1012.4 |
| 20260509192017 | 6 | 158 | 3.2 | 8.0 | 0.00 | 0.00 | 0.00 | 83 | 1012.4 |
| 20260509191017 | 6 | 135 | 3.2 | 9.7 | 0.00 | 0.00 | 0.00 | 84 | 1012.5 |
| 20260509190017 | 6 | 135 | 3.2 | 9.7 | 0.00 | 0.00 | 0.00 | 85 | 1012.5 |
| 20260509185037 | 6 | 135 | 3.2 | 8.0 | 0.00 | 0.00 | 0.00 | 86 | 1012.5 |
| 20260509184017 | 6 | 158 | 1.6 | 6.4 | 0.00 | 0.00 | 0.00 | 88 | 1012.5 |
| 20260509183037 | 5 | 158 | 1.6 | 6.4 | 0.00 | 0.00 | 0.00 | 89 | 1012.5 |
| 20260509182017 | 5 | 135 | 1.6 | 4.8 | 0.00 | 0.00 | 0.00 | 88 | 1012.6 |
| 20260509181017 | 5 | 113 | 1.6 | 6.4 | 0.00 | 0.00 | 0.00 | 88 | 1012.6 |
| 20260509180017 | 5 | 135 | 1.6 | 6.4 | 0.00 | 0.00 | 0.00 | 89 | 1012.7 |
| 20260509175017 | 5 | 158 | 3.2 | 8.0 | 0.00 | 0.00 | 0.00 | 88 | 1012.9 |
| 20260509174016 | 5 | 135 | 4.8 | 9.7 | 0.00 | 0.00 | 0.00 | 89 | 1012.9 |
| 20260509173017 | 5 | 225 | 1.6 | 6.4 | 0.00 | 0.00 | 0.00 | 89 | 1013.1 |
| 20260509172016 | 5 | 135 | 3.2 | 9.7 | 0.00 | 0.00 | 0.00 | 88 | 1013.3 |
| 20260509171016 | 5 | 135 | 4.8 | 8.0 | 0.00 | 0.00 | 0.00 | 88 | 1013.4 |
| 20260509170017 | 5 | 135 | 3.2 | 12.9 | 0.00 | 0.00 | 0.00 | 88 | 1013.5 |
| 20260509165017 | 5 | 158 | 3.2 | 9.7 | 0.00 | 0.00 | 0.00 | 88 | 1013.6 |
| 20260509164016 | 5 | 135 | 3.2 | 8.0 | 0.00 | 0.00 | 0.00 | 88 | 1013.7 |
| 20260509163016 | 5 | 225 | 1.6 | 8.0 | 0.00 | 0.00 | 0.00 | 89 | 1013.9 |
| 20260509162017 | 5 | 158 | 4.8 | 12.9 | 0.00 | 0.00 | 0.00 | 90 | 1013.9 |
| 20260509161017 | 5 | 225 | 3.2 | 11.3 | 0.00 | 0.00 | 0.00 | 91 | 1014.1 |
| 20260509160017 | 5 | 248 | 1.6 | 6.4 | 0.00 | 0.00 | 0.00 | 92 | 1014.0 |
| 20260509155036 | 6 | 158 | 1.6 | 4.8 | 0.00 | 0.00 | 0.00 | 92 | 1014.1 |
| 20260509154017 | 6 | 225 | 3.2 | 12.9 | 0.00 | 0.00 | 0.00 | 91 | 1014.0 |
| 20260509153016 | 6 | 158 | 3.2 | 17.7 | 0.00 | 0.00 | 0.00 | 91 | 1014.0 |
| 20260509152036 | 6 | 158 | 1.6 | 3.2 | 0.00 | 0.00 | 0.00 | 92 | 1013.9 |
| 20260509151016 | 6 | 293 | 1.6 | 6.4 | 0.00 | 0.00 | 0.00 | 91 | 1013.8 |
| 20260509150016 | 7 | 293 | 1.6 | 3.2 | 0.00 | 0.00 | 0.00 | 91 | 1013.8 |
| 20260509145016 | 7 | 270 | 1.6 | 4.8 | 0.00 | 0.00 | 0.00 | 91 | 1013.8 |
| 20260509144016 | 7 | 293 | 1.6 | 4.8 | 0.00 | 0.00 | 0.00 | 90 | 1013.8 |
| 20260509143016 | 7 | 293 | 4.8 | 11.3 | 0.00 | 0.00 | 0.00 | 89 | 1013.8 |
| 20260509142016 | 7 | 270 | 3.2 | 9.7 | 0.00 | 0.00 | 0.00 | 88 | 1013.8 |
| 20260509141016 | 7 | 293 | 4.8 | 12.9 | 0.00 | 0.00 | 0.00 | 87 | 1013.8 |
| 20260509140016 | 8 | 293 | 4.8 | 12.9 | 0.00 | 0.00 | 0.00 | 85 | 1013.8 |
| 20260509135036 | 8 | 293 | 4.8 | 14.5 | 0.00 | 0.00 | 0.00 | 84 | 1013.7 |
| 20260509134016 | 8 | 293 | 1.6 | 8.0 | 0.00 | 0.00 | 0.00 | 85 | 1013.5 |
| 20260509133037 | 8 | 293 | 3.2 | 8.0 | 0.00 | 0.00 | 0.00 | 82 | 1013.4 |
| 20260509132016 | 9 | 293 | 6.4 | 11.3 | 0.00 | 0.00 | 0.00 | 78 | 1013.4 |
| 20260509131016 | 10 | 293 | 6.4 | 14.5 | 0.00 | 0.00 | 0.00 | 76 | 1013.3 |
| 20260509130016 | 11 | 293 | 3.2 | 8.0 | 0.00 | 0.00 | 0.00 | 72 | 1013.2 |
| 20260509125016 | 11 | 158 | 4.8 | 12.9 | 0.00 | 0.00 | 0.00 | 61 | 1013.3 |
| 20260509124016 | 11 | 158 | 4.8 | 11.3 | 0.00 | 0.00 | 0.00 | 61 | 1013.3 |
| 20260509123016 | 11 | 135 | 3.2 | 8.0 | 0.00 | 0.00 | 0.00 | 62 | 1013.3 |
| 20260509122016 | 11 | 135 | 3.2 | 9.7 | 0.00 | 0.00 | 0.00 | 63 | 1013.4 |
| 20260509121016 | 11 | 135 | 8.0 | 16.1 | 0.00 | 0.00 | 0.00 | 61 | 1013.4 |
| 20260509120016 | 12 | 135 | 4.8 | 9.7 | 0.00 | 0.00 | 0.00 | 61 | 1013.5 |
| 20260509115036 | 12 | 135 | 3.2 | 8.0 | 0.00 | 0.00 | 0.00 | 62 | 1013.6 |
| 20260509114016 | 11 | 135 | 4.8 | 8.0 | 0.00 | 0.00 | 0.00 | 61 | 1013.7 |
| 20260509113016 | 11 | 135 | 3.2 | 8.0 | 0.00 | 0.00 | 0.00 | 64 | 1013.8 |
| 20260509112016 | 11 | 135 | 3.2 | 4.8 | 0.00 | 0.00 | 0.00 | 69 | 1014.0 |
| 20260509111016 | 11 | 135 | 3.2 | 6.4 | 0.00 | 0.00 | 0.00 | 71 | 1014.2 |
| 20260509110016 | 11 | 0.0 | 1.6 | 0.00 | 0.00 | 0.00 | 69 | 1014.2 | |
| 20260509105016 | 11 | 0.0 | 1.6 | 0.00 | 0.00 | 0.00 | 69 | 1014.3 | |
| 20260509104016 | 11 | 0.0 | 1.6 | 0.00 | 0.00 | 0.00 | 69 | 1014.3 | |
| 20260509103016 | 11 | 0.0 | 1.6 | 0.00 | 0.00 | 0.00 | 71 | 1014.4 | |
| 20260509102016 | 11 | 293 | 3.2 | 6.4 | 0.00 | 0.00 | 0.00 | 69 | 1014.4 |
| 20260509101016 | 11 | 293 | 3.2 | 9.7 | 0.00 | 0.00 | 0.00 | 69 | 1014.5 |
| 20260509100016 | 11 | 293 | 4.8 | 9.7 | 0.00 | 0.00 | 0.00 | 69 | 1014.5 |
| 20260509095016 | 11 | 293 | 3.2 | 9.7 | 0.00 | 0.00 | 0.00 | 69 | 1014.5 |
| 20260509094016 | 11 | 293 | 4.8 | 9.7 | 0.00 | 0.00 | 0.00 | 68 | 1014.6 |
| 20260509093016 | 11 | 293 | 4.8 | 12.9 | 0.00 | 0.00 | 0.00 | 68 | 1014.6 |
| 20260509092018 | 11 | 293 | 6.4 | 9.7 | 0.00 | 0.00 | 0.00 | 70 | 1014.7 |
| 20260509091015 | 11 | 293 | 6.4 | 11.3 | 0.00 | 0.00 | 0.00 | 69 | 1014.7 |
| 20260509090016 | 11 | 293 | 3.2 | 12.9 | 0.00 | 0.00 | 0.00 | 68 | 1014.7 |
| 20260509085016 | 11 | 270 | 1.6 | 6.4 | 0.00 | 0.00 | 0.00 | 64 | 1014.7 |
| 20260509084015 | 11 | 135 | 1.6 | 4.8 | 0.00 | 0.00 | 0.00 | 63 | 1014.7 |
| 20260509083036 | 10 | 158 | 1.6 | 4.8 | 0.00 | 0.00 | 0.00 | 63 | 1014.8 |
| 20260509082016 | 10 | 135 | 1.6 | 8.0 | 0.00 | 0.00 | 0.00 | 64 | 1014.8 |
| 20260509081036 | 10 | 225 | 3.2 | 11.3 | 0.00 | 0.00 | 0.00 | 63 | 1014.8 |
| 20260509080036 | 11 | 158 | 1.6 | 8.0 | 0.00 | 0.00 | 0.00 | 66 | 1014.7 |
| 20260509075016 | 11 | 225 | 3.2 | 9.7 | 0.00 | 0.00 | 0.00 | 64 | 1014.6 |
| 20260509074036 | 11 | 135 | 3.2 | 6.4 | 0.00 | 0.00 | 0.00 | 64 | 1014.5 |
| 20260509073015 | 11 | 135 | 6.4 | 11.3 | 0.00 | 0.00 | 0.00 | 63 | 1014.4 |
| 20260509072015 | 11 | 135 | 4.8 | 8.0 | 0.00 | 0.00 | 0.00 | 63 | 1014.4 |
| 20260509071015 | 11 | 135 | 6.4 | 12.9 | 0.00 | 0.00 | 0.00 | 61 | 1014.4 |
| 20260509070015 | 11 | 135 | 6.4 | 9.7 | 0.00 | 0.00 | 0.00 | 61 | 1014.4 |
| 20260509065015 | 11 | 113 | 4.8 | 9.7 | 0.00 | 0.00 | 0.00 | 61 | 1014.3 |
| 20260509064015 | 11 | 135 | 3.2 | 9.7 | 0.00 | 0.00 | 0.00 | 61 | 1014.4 |
| 20260509063015 | 11 | 158 | 4.8 | 9.7 | 0.00 | 0.00 | 0.00 | 60 | 1014.4 |
| 20260509062015 | 11 | 135 | 4.8 | 9.7 | 0.00 | 0.00 | 0.00 | 61 | 1014.5 |
| 20260509061055 | 10 | 135 | 4.8 | 8.0 | 0.00 | 0.00 | 0.00 | 61 | 1014.5 |
| 20260509060016 | 10 | 135 | 4.8 | 9.7 | 0.00 | 0.00 | 0.00 | 61 | 1014.6 |
| 20260509055015 | 10 | 135 | 3.2 | 8.0 | 0.00 | 0.00 | 0.00 | 63 | 1014.6 |
| 20260509054015 | 10 | 135 | 6.4 | 11.3 | 0.00 | 0.00 | 0.00 | 62 | 1014.6 |
| 20260509053036 | 10 | 135 | 3.2 | 8.0 | 0.00 | 0.00 | 0.00 | 59 | 1014.6 |
| 20260509052015 | 10 | 135 | 3.2 | 8.0 | 0.00 | 0.00 | 0.00 | 59 | 1014.5 |
| 20260509051015 | 10 | 270 | 1.6 | 3.2 | 0.00 | 0.00 | 0.00 | 62 | 1014.5 |
| 20260509050015 | 9 | 315 | 1.6 | 6.4 | 0.00 | 0.00 | 0.00 | 61 | 1014.5 |
| 20260509045015 | 10 | 0.0 | 3.2 | 0.00 | 0.00 | 0.00 | 63 | 1014.6 | |
| 20260509044015 | 9 | 68 | 1.6 | 6.4 | 0.00 | 0.00 | 0.00 | 63 | 1014.6 |
| 20260509043015 | 9 | 68 | 1.6 | 4.8 | 0.00 | 0.00 | 0.00 | 64 | 1014.7 |
| 20260509042015 | 9 | 90 | 3.2 | 12.9 | 0.00 | 0.00 | 0.00 | 67 | 1014.7 |
| 20260509041024 | 8 | 0.0 | 3.2 | 0.00 | 0.00 | 0.00 | 70 | 1014.8 | |
| 20260509040017 | 8 | 338 | 1.6 | 6.4 | 0.00 | 0.00 | 0.00 | 71 | 1014.8 |
| 20260509035017 | 8 | 68 | 1.6 | 8.0 | 0.00 | 0.00 | 0.00 | 74 | 1014.7 |
| 20260509034037 | 7 | 68 | 3.2 | 9.7 | 0.00 | 0.00 | 0.00 | 77 | 1014.8 |
| 20260509033017 | 6 | 293 | 1.6 | 6.4 | 0.00 | 0.00 | 0.00 | 81 | 1015.1 |
| 20260509032017 | 6 | 0.0 | 1.6 | 0.00 | 0.00 | 0.00 | 82 | 1015.2 | |
| 20260509031017 | 6 | 293 | 1.6 | 4.8 | 0.00 | 0.00 | 0.00 | 81 | 1015.4 |
| 20260509030017 | 6 | 0.0 | 0.0 | 0.00 | 0.00 | 0.00 | 81 | 1015.6 | |
| 20260509025017 | 6 | 0.0 | 0.0 | 0.00 | 0.00 | 0.00 | 81 | 1015.8 | |
| 20260509024017 | 6 | 0.0 | 0.0 | 0.00 | 0.00 | 0.00 | 80 | 1015.9 | |
| 20260509023017 | 6 | 0.0 | 0.0 | 0.00 | 0.00 | 0.00 | 79 | 1015.8 | |
| 20260509022017 | 6 | 0.0 | 1.6 | 0.00 | 0.00 | 0.00 | 79 | 1015.9 | |
| 20260509021017 | 6 | 0.0 | 1.6 | 0.00 | 0.00 | 0.00 | 79 | 1016.0 | |
| 20260509020037 | 7 | 0.0 | 0.0 | 0.00 | 0.00 | 0.00 | 75 | 1016.0 | |
| 20260509015017 | 7 | 0.0 | 1.6 | 0.00 | 0.00 | 0.00 | 76 | 1016.0 | |
| 20260509014037 | 7 | 0.0 | 1.6 | 0.00 | 0.00 | 0.00 | 77 | 1016.1 | |
| 20260509013017 | 7 | 0.0 | 1.6 | 0.00 | 0.00 | 0.00 | 76 | 1016.1 | |
| 20260509012018 | 7 | 203 | 1.6 | 4.8 | 0.00 | 0.00 | 0.00 | 75 | 1016.2 |
| 20260509011017 | 7 | 0.0 | 1.6 | 0.00 | 0.00 | 0.00 | 78 | 1016.3 | |
| 20260509010017 | 6 | 23 | 3.2 | 11.3 | 0.00 | 0.00 | 0.00 | 81 | 1016.1 |
| 20260509005017 | 6 | 0.0 | 1.6 | 0.00 | 0.00 | 0.00 | 82 | 1015.9 | |
| 20260509004017 | 5 | 0.0 | 1.6 | 0.00 | 0.00 | 0.00 | 86 | 1015.9 | |
| 20260509003017 | 5 | 0.0 | 0.0 | 0.00 | 0.00 | 0.00 | 88 | 1015.9 | |
| 20260509002017 | 5 | 0.0 | 0.0 | 0.00 | 0.00 | 0.00 | 87 | 1015.9 | |
| 20260509001017 | 5 | 0.0 | 0.0 | 0.00 | 0.00 | 0.00 | 88 | 1015.8 | |
| 20260509000017 | 5 | 0.0 | 0.0 | 0.00 | 0.00 | 0.00 | 87 | 1015.7 | |
| 20260508235016 | 5 | 0.0 | 0.0 | 0.00 | 0.00 | 0.00 | 87 | 1015.7 |